Regional Weather Roundup
Issued by NWS Austin/San Antonio, TX

Home | Current Version | Previous Version | Text Only | Print | Product List | Glossary On
Versions: 1 2 3 4 5 6 7 8 9 10 11 12 13 14 15 16 17 18 19 20 21 22 23 24 25 26 27 28 29 30 31 32 33 34 35 36 37 38 39 40 41 42 43 44 45 46 47 48 49 50
000
ASUS44 KEWX 151110
RWREWX
SOUTH TEXAS REGIONAL WEATHER ROUNDUP
NATIONAL WEATHER SERVICE AUSTIN/SAN ANTONIO TX
500 AM CST MON JAN 15 2018

NOTE: "FAIR" INDICATED FEW OR NO CLOUDS BELOW 12,000 FEET WITH NO
SIGNIFICANT WEATHER AND/OR OBSTRUCTIONS TO VISIBILITY.

* - THESE STATIONS ARE NOT NWS OR FAA STATIONS...AND ARE NOT SUBJECT
    TO NWS AND FAA QUALITY CONTROL.

TXZ171-172-183>190-151200-
TEXAS HILL COUNTRY AND EDWARDS PLATEAU

CITY           SKY/WX    TMP DP  RH WIND       PRES   REMARKS
JUNCTION       CLEAR     27  25  92 W3        30.26F
*LLANO         CLEAR     32  30  93 CALM      30.32F
BURNET         FOG       40  39  97 S7        30.30F VSB 1/4 WCI  35
*HORSESHOE BAY CLOUDY    45  45 100 S6        30.29F WCI  42
*KERRVILLE     CLOUDY    31  28  89 CALM      30.29S
*FREDERICKSBRG PTCLDY    28  25  88 CALM      30.29S
*ROCKSPRINGS     N/A     41  41 100 S9        30.30F WCI  35
*BOERNE STAGE  CLOUDY    41  41 100 CALM      30.30F VSB 1/4
*CASTROVILLE   CLEAR     35  31  86 CALM      30.32S
HONDO          PTCLDY    37  31  78 NE6       30.30F WCI  32
*UVALDE        MOCLDY    40  37  92 NE7       30.30S WCI  35
DEL RIO        CLEAR     40  36  86 E9        30.26F WCI  34
LAUGHLIN AFB   PTCLDY    38  35  88 SE5       30.26F WCI  35
CARRIZO SPRGS  CLOUDY    37  37 100 CALM      30.28S
*EAGLE PASS    CLOUDY    39  36  87 E6        30.27F WCI  35
*FAITH RANCH   CLOUDY    46  45  93 CALM      30.27F
$$

TXZ173-191>194-202-209-217>225-228-151200-
CENTRAL AND SOUTH CENTRAL TEXAS

CITY           SKY/WX    TMP DP  RH WIND       PRES   REMARKS
GEORGETOWN     PTCLDY    34  32  92 S3        30.31F
AUSTIN/BERGSTM PTCLDY    31  31 100 CALM      30.32F
AUSTIN/MABRY   PTCLDY    40  38  93 CALM      30.32F
*AUSTIN/EXEC   FOG       37  37 100 CALM      30.31F VSB 1
*LAGO VISTA    CLOUDY    44  43  99 SW7       30.29F WCI  40
SAN MARCOS     CLEAR     34  31  88 NW6       30.32F WCI  29
NEW BRAUNFELS  CLOUDY    34  33  96 N3        30.30F
RANDOLPH AFB   CLEAR     36  34  94 NW6       30.31F WCI  31
PT SAN ANTONIO CLEAR     39  38  97 N3        30.28F
SAN ANTONIO    PTCLDY    37  34  89 NW3       30.31F
STINSON FIELD  CLEAR     41  39  93 CALM      30.29F
*LA GRANGE     CLEAR     40  39  97 CALM      30.30F
*GIDDINGS      CLEAR     38  38  97 S3        30.32F
*GONZALES      CLEAR     38  38 100 CALM      30.31F FOG
$$

TXZ163>164-176>182-195>201-210>213-226-227-235-151200-
SOUTHEAST TEXAS

CITY           SKY/WX    TMP DP  RH WIND       PRES   REMARKS
COLLEGE STN    CLEAR     38  36  92 SE3       30.32F
*BRYAN         CLEAR     36  36 100 SE3       30.34S
*CALDWELL      CLEAR     37  37  98 SW5       30.32F FOG     WCI  33
*CROCKETT        N/A     34  28  80 CALM      30.37S
*BRENHAM       CLEAR     38  38  99 CALM      30.34F FOG
HUNTSVILLE     CLEAR     42  36  79 S7        30.32F WCI  38
CONROE         CLEAR     29  29 100 CALM      30.35F
HOUSTON BUSH   CLEAR     35  34  96 CALM      30.35F
HOUSTON HOBBY  FAIR      42  39  89 SE5       30.34F WCI  39
*HOUSTON SW AP FAIR      38  37  98 MISG      30.36S
PEARLAND       FAIR      38  37  97 CALM      30.36F
HOUSTON HOOKS  FAIR      35  34  96 E3        30.34F FOG
ELLINGTON FLD  CLEAR     41  39  93 CALM      30.36
SUGAR LAND     FAIR      42  38  85 SE5       30.34F WCI  39
*HOUSTON EXEC  FAIR      39  37  93 SE6       30.34F WCI  35
*CLEVELAND MUN FAIR      30  29  95 CALM      30.37F
*WHARTON       CLEAR     39  37  93 SE3       30.34F
*COLUMBUS      FAIR      35  34  94 CALM      30.34F FOG
*EAGLE LAKE    SUNNY     36  36 100 CALM      30.33F FOG
$$

TXZ214>216-236>238-151200-
THE UPPER TEXAS COAST

CITY           SKY/WX    TMP DP  RH WIND       PRES   REMARKS
*ORANGE        FAIR      32  32 100 CALM      30.40F
PORT ARTHUR    FAIR      35  33  92 CALM      30.38F
GALVESTON      FAIR      49  44  83 SE8       30.36F WCI  45
ANGLETON       FAIR      38  36  92 CALM      30.34F
*BAY CITY      CLEAR     41  41 100 E5        30.34S WCI  38
PALACIOS       CLEAR     50  48  93 E9        30.33F WCI  46
$$

TXZ229>234-239>247-151200-
TEXAS COASTAL BEND AND RIO GRANDE PLAINS

CITY           SKY/WX    TMP DP  RH WIND       PRES   REMARKS
VICTORIA       CLEAR     38  36  92 NE5       30.32F FOG     WCI  34
*BEEVILLE      CLEAR     43  43 100 E5        30.30F WCI  40
ROCKPORT       CLEAR     50  49  96 E7        30.30F WCI  47
*PORT ARANSAS  NOT AVBL
*PORT LAVACA   NOT AVBL
*INGLESIDE     CLEAR     54  51  92 E5        30.30S
CORPUS CHRISTI PTCLDY    45  45 100 E5        30.29F WCI  43
CORPUS NAS     CLEAR     54  51  90 SE7       30.29F
*ROBSTOWN      CLEAR     48  47  96 E5        30.30F WCI  47
ALICE          CLOUDY    45  43  93 N3        30.28F
KINGSVILLE NAS CLOUDY    48  46  93 NE5       30.29F WCI  46
COTULLA        CLOUDY    43  41  93 E6        30.29F WCI  39
LAREDO         CLOUDY    52  47  83 SE6       30.27F
$$

TXZ248>255-151200-
DEEP SOUTH TEXAS

CITY           SKY/WX    TMP DP  RH WIND       PRES   REMARKS
BROWNSVILLE    CLOUDY    62  55  77 E6        30.30S
PORT ISABEL    CLOUDY    61  55  81 SE7       30.29S
*SOUTH PADRE   NOT AVBL
HARLINGEN      CLOUDY    61  53  75 SE10      30.28F
*HEBBRONVILLE  CLOUDY    49  46  87 CALM      30.28F
MCALLEN        CLOUDY    58  51  78 SE7       30.28F
*WESLACO       CLOUDY    59  51  74 SE5       30.28S
FALFURRIAS     CLOUDY    50  47  88 CALM      30.29S
EDINBURG       CLOUDY    58  51  77 SE3       30.29S
*ZAPATA        CLOUDY    49  45  85 CALM      30.26F
$$

TXZ213>215-236>238-242>244-246-247-251-254-255-151200-
CMAN STATIONS

STATION/POSITION TIME  TEMP    WIND        PRES    WAVE
                       AIR SEA DIR/SP/G            HT/PER
                 (UTC) (F)     (DEG/KT/KT) (MB)    (FT/S)
SABINE PASS      1042   48 52  160/  5/  7 1030.2
SEA RIM ST PARK  1100   49     140/  5/  5 1028.9
NORTH JETTY/GLS  1042      49  130/  8/  8 1027.5
EAGLE POINT      1042   47 47  140/  4/  4 1027.9
MORGANS POINT    1048      49  120/  4/  5 1027.8
PORT O`CONNOR    1048   55 53  120/  9/ 10 1026.3
MALAQUITE BEACH  1048   59 57  120/  9/  9 1025.3
BAFFIN BAY       1048   58 56  120/  7/  8 1025.8
PORT ISABEL      1048   62 58  160/  2/  3 1025.5
$$




USA.gov is the U.S. government's official web portal to all federal, state and local government web resources and services.